Location: Unspecified
(0.0000°N, 0.0000°E)
Time: 13:31:57
(UTC+00:00)

LilacSat-2 - Pass Details

Date: 09 December 2017
Orbit: 515 x 536 km, 97.5° (Epoch: 26 April)

Event Time Altitude Azimuth Distance (km) Brightness Sun altitude
Rises 05:17:53 0° 24° (NNE) 2,670 ? -7.9°
Reaches altitude 10° 05:20:06 10° 33° (NNE) 1,781 ? -7.4°
Maximum altitude 05:23:41 38° 101° (E) 830 ? -6.6°
Drops below altitude 10° 05:27:16 10° 170° (S) 1,782 ? -5.8°
Sets 05:29:28 0° 178° (S) 2,671 ? -5.3°
